This is the latest recevied weather packets stored in our database for station/object OK1KKY-18. If no packets are shown the sender has not sent any weather packets the latest 10 day(s).
| Time | Temp. | Humidity | Pressure | Rain* | Wind** | Luminosity | Snow |
|---|---|---|---|---|---|---|---|
| 1787512031 | 8.89° C | 96% | 1023.6 hPa | - | - | - | - |
| 1787511431 | 8.89° C | 95% | 1023.6 hPa | - | - | - | - |
| 1787510831 | 9.44° C | 94% | 1023.6 hPa | - | - | - | - |
| 1787510231 | 9.44° C | 94% | 1023.6 hPa | - | - | - | - |
| 1787509631 | 9.44° C | 93% | 1023.5 hPa | - | - | - | - |
| 1787509031 | 10° C | 92% | 1023.4 hPa | - | - | - | - |
| 1787508431 | 10° C | 91% | 1023.2 hPa | - | - | - | - |
| 1787507831 | 10.56° C | 90% | 1023.2 hPa | - | - | - | - |
| 1787507231 | 10.56° C | 88% | 1023.1 hPa | - | - | - | - |
| 1787506631 | 11.11° C | 88% | 1023.1 hPa | - | - | - | - |
| 1787506031 | 11.11° C | 86% | 1023.1 hPa | - | - | - | - |
| 1787505431 | 11.67° C | 81% | 1023.1 hPa | - | - | - | - |
| 1787504831 | 12.22° C | 78% | 1023 hPa | - | - | - | - |
| 1787504231 | 12.78° C | 78% | 1023 hPa | - | - | - | - |
| 1787503631 | 13.33° C | 74% | 1022.9 hPa | - | - | - | - |
| 1787503031 | 13.33° C | 70% | 1022.9 hPa | - | - | - | - |
| 1787502431 | 13.89° C | 68% | 1023 hPa | - | - | - | - |
| 1787501831 | 14.44° C | 65% | 1023 hPa | - | - | - | - |
| 1787501231 | 15° C | 64% | 1023.1 hPa | - | - | - | - |
| 1787500631 | 15° C | 60% | 1023 hPa | - | - | - | - |
| 1787500031 | 15.56° C | 57% | 1023 hPa | - | - | - | - |
| 1787499431 | 16.11° C | 60% | 1022.9 hPa | - | - | - | - |
| 1787498831 | 16.67° C | 53% | 1022.8 hPa | - | - | - | - |
| 1787498231 | 16.67° C | 50% | 1022.9 hPa | - | - | - | - |
| 1787497631 | 17.22° C | 50% | 1022.9 hPa | - | - | - | - |
* Rain since midnight (hover to see other rain measurements)
** Current wind speed in m/s (hover to see current wind gust speed)